GALAXY 25 (TELSTAR 5)

导读

GALAXY 25(曾用名TELSTAR 5、Intelsat Americas 5)是由美国于1997年5月24日发射的通信卫星,隶属于国际通信卫星组织Intelsat的Galaxy卫星系列。作为一颗商用通信卫星,它主要承担北美地区的电视广播、通信传输等服务,支撑卫星电视信号分发和商业通信网络,在服役期间为跨区域通信连接提供了稳定支持,完成了既定通信服务使命。

Basic Information
目录编号:
24812
目录名称:
GALAXY 25 (TELSTAR 5)
国际标识:
1997-026A
轨道中心:
EARTH
卫星名称:
GALAXY 25 (TELSTAR 5)
卫星全名:
--
卫星状态:
在轨 (已飞行10706 天)
发射日期:
1997-05-24 UTC
国别 :
美国 (US)
星等 :
--
This satellite is enrolled in the Space Conjunction Data Service (SCDS) and the current flight risk assessment level is: No High Risk
Orbit Information
数据来源 国际轨道数据 AOE轨道数据
星历时间 2026-09-15T23:23:15+0800
7小时前
查看轨道信息
2026-09-12T17:00:00+0800
3天前
查看轨道信息
半长轴 42499.833km 42499.804km
偏心率 0.0005875 0.000618
轨道倾角 7.615° 7.607°
近地点辐角 65.945° 64.805°
升交点赤经 66.750° 66.790°
平近点角 344.978° 260.966°
近地点 36096.727km 36095.402km
远地点 36146.665km 36147.932km
周期 1453.251分钟 1453.249分钟
每日圈数 0.990882 0.990883
Detailed Information
使用方式:
暂无
2D Orbit Map
3D Orbit Map
Orbit Altitude Analysis Chart
Orbit Inclination Analysis Chart
Orbit Comprehensive Analysis Chart
View Comprehensive Chart
Miss Distance Evolution Trend with All Objects Subscribe to Flight Safety Assessment
Collision Probability Evolution Trend with All Objects Subscribe to Flight Safety Assessment